Precipitable_Water
1.39 1.34 1.31 1.28 1.27 1.25 1.21 1.18 1.15 1.09 1.04 0.99 0.91 0.86 0.82 0.81 0.81 0.77 0.73 0.71 0.69 0.65 0.63 0.60 0.56 0.52 0.49 0.46 0.43 0.41 0.39 0.38 0.36 0.35 0.33 0.31 0.30 0.29 0.29 0.31 0.32 0.32
1.33 1.32 1.31 1.29 1.26 1.24 1.22 1.19 1.13 1.07 1.02 0.96 0.90 0.85 0.82 0.80 0.79 0.76 0.73 0.70 0.67 0.64 0.61 0.57 0.53 0.49 0.45 0.43 0.42 0.39 0.37 0.35 0.34 0.34 0.32 0.31 0.30 0.31 0.32 0.32 0.32 0.30
1.31 1.31 1.30 1.25 1.23 1.21 1.19 1.17 1.12 1.05 0.98 0.93 0.88 0.82 0.79 0.81 0.78 0.77 0.73 0.68 0.65 0.62 0.59 0.55 0.51 0.48 0.45 0.42 0.40 0.38 0.36 0.34 0.33 0.34 0.32 0.31 0.33 0.33 0.33 0.31 0.28 0.25
1.30 1.32 1.28 1.25 1.22 1.19 1.17 1.13 1.07 1.01 0.95 0.89 0.84 0.84 0.82 0.80 0.77 0.72 0.68 0.66 0.64 0.60 0.57 0.54 0.50 0.47 0.43 0.40 0.38 0.37 0.36 0.35 0.35 0.34 0.33 0.34 0.34 0.33 0.30 0.27 0.25 0.25
1.29 1.28 1.27 1.24 1.22 1.19 1.15 1.09 1.02 0.97 0.93 0.92 0.89 0.86 0.81 0.76 0.70 0.67 0.66 0.65 0.62 0.58 0.55 0.52 0.49 0.44 0.42 0.39 0.38 0.36 0.35 0.35 0.35 0.34 0.34 0.34 0.33 0.30 0.27 0.26 0.25 0.24
1.30 1.28 1.25 1.22 1.20 1.16 1.11 1.06 1.03 1.00 0.97 0.92 0.87 0.83 0.76 0.71 0.68 0.66 0.64 0.62 0.60 0.57 0.53 0.50 0.46 0.43 0.41 0.39 0.37 0.36 0.36 0.34 0.35 0.35 0.33 0.31 0.29 0.27 0.27 0.26 0.24 0.23
1.27 1.24 1.22 1.21 1.17 1.15 1.12 1.09 1.06 1.01 0.96 0.90 0.84 0.78 0.72 0.69 0.67 0.64 0.62 0.60 0.58 0.54 0.51 0.47 0.44 0.42 0.41 0.38 0.36 0.36 0.35 0.35 0.35 0.34 0.32 0.29 0.27 0.26 0.26 0.26 0.24 0.23
1.25 1.24 1.22 1.20 1.17 1.16 1.13 1.09 1.05 1.00 0.95 0.88 0.80 0.75 0.70 0.67 0.65 0.63 0.61 0.59 0.56 0.52 0.49 0.46 0.44 0.42 0.40 0.38 0.35 0.35 0.34 0.36 0.36 0.34 0.31 0.29 0.27 0.25 0.24 0.25 0.25 0.23
1.24 1.22 1.20 1.18 1.17 1.16 1.11 1.08 1.03 0.98 0.93 0.85 0.79 0.72 0.70 0.67 0.64 0.62 0.60 0.57 0.54 0.50 0.47 0.45 0.44 0.42 0.40 0.37 0.36 0.35 0.34 0.36 0.36 0.33 0.30 0.29 0.27 0.24 0.24 0.25 0.24 0.24
1.20 1.20 1.17 1.18 1.16 1.14 1.09 1.05 1.01 0.96 0.91 0.84 0.77 0.70 0.67 0.67 0.65 0.62 0.58 0.55 0.51 0.48 0.46 0.45 0.44 0.42 0.39 0.38 0.37 0.36 0.36 0.36 0.34 0.33 0.32 0.30 0.27 0.25 0.24 0.24 0.24 0.23
1.17 1.17 1.16 1.17 1.14 1.12 1.07 1.03 0.99 0.93 0.89 0.82 0.73 0.68 0.66 0.65 0.63 0.61 0.57 0.53 0.49 0.46 0.45 0.45 0.44 0.42 0.39 0.38 0.38 0.38 0.38 0.36 0.34 0.33 0.32 0.30 0.28 0.26 0.25 0.25 0.24 0.24
1.16 1.16 1.16 1.15 1.13 1.10 1.06 1.01 0.96 0.91 0.86 0.79 0.71 0.66 0.64 0.63 0.60 0.58 0.55 0.51 0.48 0.46 0.46 0.46 0.45 0.43 0.41 0.39 0.38 0.39 0.39 0.36 0.35 0.34 0.33 0.31 0.30 0.28 0.26 0.26 0.25 0.25
1.15 1.15 1.15 1.14 1.11 1.08 1.05 0.99 0.94 0.89 0.83 0.74 0.69 0.65 0.62 0.61 0.59 0.56 0.54 0.50 0.48 0.47 0.47 0.46 0.46 0.44 0.42 0.40 0.40 0.40 0.38 0.36 0.35 0.34 0.33 0.32 0.31 0.28 0.27 0.26 0.26 0.27
1.15 1.15 1.14 1.12 1.10 1.07 1.03 0.97 0.92 0.87 0.79 0.72 0.68 0.65 0.64 0.60 0.56 0.54 0.52 0.50 0.48 0.48 0.48 0.48 0.46 0.44 0.42 0.42 0.41 0.40 0.37 0.36 0.36 0.34 0.33 0.32 0.31 0.29 0.28 0.27 0.27 0.27
1.14 1.13 1.12 1.10 1.08 1.05 1.00 0.94 0.89 0.83 0.76 0.70 0.68 0.67 0.64 0.60 0.57 0.54 0.51 0.48 0.48 0.48 0.48 0.48 0.46 0.43 0.43 0.43 0.41 0.38 0.38 0.36 0.36 0.34 0.33 0.31 0.30 0.29 0.29 0.28 0.27 0.27
1.12 1.11 1.09 1.08 1.05 1.02 0.97 0.92 0.87 0.80 0.73 0.69 0.68 0.66 0.62 0.58 0.56 0.54 0.51 0.48 0.47 0.48 0.48 0.47 0.45 0.45 0.44 0.44 0.41 0.38 0.37 0.37 0.36 0.35 0.33 0.31 0.29 0.29 0.29 0.29 0.27 0.27
1.10 1.08 1.07 1.05 1.04 1.00 0.96 0.90 0.83 0.77 0.71 0.68 0.66 0.64 0.61 0.57 0.55 0.52 0.49 0.48 0.47 0.47 0.46 0.45 0.45 0.45 0.44 0.44 0.40 0.38 0.38 0.37 0.36 0.34 0.33 0.31 0.30 0.29 0.28 0.29 0.28 0.26
1.08 1.07 1.05 1.04 1.03 0.99 0.94 0.87 0.81 0.73 0.69 0.67 0.65 0.63 0.61 0.57 0.53 0.51 0.49 0.48 0.48 0.47 0.46 0.45 0.45 0.45 0.45 0.43 0.39 0.37 0.37 0.37 0.36 0.33 0.32 0.31 0.30 0.29 0.29 0.29 0.28 0.26
1.07 1.05 1.04 1.04 1.03 0.99 0.93 0.86 0.77 0.70 0.67 0.66 0.64 0.62 0.59 0.54 0.52 0.51 0.48 0.48 0.47 0.46 0.45 0.45 0.45 0.46 0.45 0.42 0.39 0.38 0.37 0.36 0.35 0.33 0.31 0.31 0.30 0.30 0.30 0.29 0.28 0.25
1.07 1.05 1.04 1.04 1.03 0.98 0.91 0.83 0.75 0.70 0.68 0.67 0.64 0.60 0.55 0.53 0.53 0.51 0.49 0.47 0.46 0.45 0.44 0.44 0.45 0.46 0.45 0.42 0.40 0.38 0.37 0.35 0.35 0.34 0.33 0.32 0.31 0.31 0.30 0.30 0.27 0.25
1.08 1.07 1.07 1.06 1.03 0.97 0.88 0.80 0.74 0.71 0.69 0.67 0.62 0.55 0.52 0.51 0.52 0.52 0.49 0.47 0.46 0.46 0.44 0.43 0.46 0.46 0.44 0.41 0.40 0.38 0.37 0.36 0.36 0.35 0.33 0.33 0.33 0.32 0.31 0.30 0.28 0.26
1.07 1.06 1.05 1.03 1.00 0.93 0.85 0.78 0.75 0.72 0.69 0.66 0.62 0.57 0.55 0.55 0.55 0.54 0.50 0.46 0.45 0.45 0.43 0.43 0.45 0.46 0.43 0.41 0.39 0.38 0.37 0.36 0.36 0.34 0.33 0.33 0.33 0.32 0.32 0.30 0.28 0.27
1.03 1.03 1.03 1.01 0.93 0.90 0.83 0.78 0.74 0.72 0.69 0.66 0.61 0.56 0.53 0.54 0.55 0.54 0.50 0.45 0.43 0.43 0.42 0.43 0.44 0.44 0.42 0.39 0.37 0.37 0.36 0.35 0.34 0.34 0.33 0.33 0.32 0.32 0.31 0.30 0.28 0.29
1.11 1.12 1.07 1.01 0.96 0.89 0.82 0.78 0.75 0.72 0.68 0.66 0.59 0.55 0.54 0.54 0.53 0.53 0.50 0.45 0.42 0.41 0.42 0.42 0.43 0.42 0.39 0.37 0.36 0.35 0.35 0.33 0.33 0.32 0.32 0.32 0.32 0.32 0.31 0.30 0.29 0.27
1.08 1.07 1.06 1.06 1.00 0.93 0.86 0.79 0.75 0.73 0.71 0.66 0.61 0.57 0.53 0.53 0.53 0.51 0.48 0.45 0.43 0.42 0.43 0.43 0.42 0.40 0.37 0.35 0.34 0.32 0.31 0.32 0.31 0.31 0.30 0.31 0.30 0.30 0.30 0.29 0.28 0.27
1.06 1.06 1.04 1.03 0.99 0.96 0.90 0.82 0.77 0.74 0.71 0.66 0.62 0.57 0.54 0.54 0.53 0.50 0.47 0.44 0.43 0.43 0.43 0.44 0.42 0.38 0.35 0.31 0.29 0.29 0.30 0.31 0.31 0.30 0.29 0.29 0.30 0.29 0.28 0.28 0.27 0.27
Wind_Speed
15 15 14 13 12 12 11 11 11 11 10 10 10 10 10 9 8 7 7 7 6 6 6 7 7 8 8 9 9 9 10 11 11 12 12 13 13 14 15 15 16 16
15 15 14 13 13 12 11 11 11 10 10 9 10 10 10 9 8 7 7 6 6 6 6 7 7 8 8 8 9 9 10 11 11 12 13 13 14 14 15 16 16 16
15 15 14 14 13 12 11 11 11 10 10 9 10 10 10 9 8 7 7 6 6 6 6 7 7 8 8 8 9 10 10 11 11 12 13 14 14 15 15 15 16 16
15 15 15 14 13 12 11 11 10 10 10 9 10 9 9 8 8 7 7 6 6 6 7 7 7 7 8 8 9 10 10 11 12 12 13 14 15 15 15 15 15 16
14 15 14 13 13 12 11 11 11 10 10 9 9 9 9 8 8 7 7 6 6 7 7 7 7 7 8 9 9 10 11 11 12 13 14 14 14 14 15 15 15 16
14 14 14 13 13 12 12 11 11 10 10 9 9 9 9 8 8 7 7 7 7 7 7 7 7 8 8 9 9 10 11 11 12 13 13 14 14 14 15 15 15 16
15 15 14 14 13 13 12 12 11 10 10 9 9 9 9 9 8 7 7 7 7 7 7 7 8 8 9 9 10 10 11 11 12 13 13 14 14 14 14 15 15 16
15 15 15 15 14 13 13 12 11 11 10 10 10 10 9 9 8 8 8 8 7 7 7 7 8 8 9 9 10 10 11 12 12 13 13 14 14 14 14 15 15 16
16 16 15 15 14 14 13 12 11 11 11 10 10 10 10 9 9 8 8 8 8 8 7 8 8 9 9 9 10 10 11 12 12 13 13 14 14 14 14 15 15 16
16 16 16 15 15 14 14 13 12 12 11 11 11 11 10 10 9 9 9 8 8 8 8 8 9 9 9 10 10 11 11 12 12 13 13 14 14 14 14 15 16 16
17 17 16 16 15 15 14 14 13 12 12 12 11 11 11 11 10 10 9 9 9 9 9 9 9 9 10 10 10 11 11 12 12 13 13 13 14 14 14 15 16 17
18 17 17 16 16 16 15 14 14 13 13 12 12 12 12 11 11 11 10 10 10 9 9 9 10 10 10 11 11 11 11 12 12 13 13 13 13 13 14 15 16 17
18 18 18 17 17 16 16 15 14 14 13 13 13 12 12 12 12 12 11 11 10 10 10 10 10 10 11 11 11 11 12 12 12 13 13 13 13 13 14 15 16 16
19 19 18 18 17 17 16 16 15 14 14 13 13 13 13 13 13 12 12 12 11 11 11 11 11 11 11 11 11 12 12 12 13 13 13 13 13 13 14 15 15 16
20 19 19 19 18 18 17 16 16 15 14 14 14 14 14 13 13 13 13 12 12 12 11 12 11 11 12 12 12 12 12 12 13 13 13 13 13 13 14 14 15 15
20 20 20 19 19 18 18 17 17 16 15 15 15 15 14 14 14 14 14 13 13 12 12 12 12 12 12 12 12 12 12 13 13 13 13 12 13 13 14 14 14 15
21 21 21 20 20 19 19 18 18 17 16 16 16 15 15 15 15 15 15 14 14 13 13 13 13 12 12 12 12 12 12 13 13 13 12 12 12 13 13 13 14 14
22 22 21 21 21 20 20 19 19 18 17 17 16 16 16 16 16 16 16 15 14 14 13 13 13 12 12 12 12 12 12 13 13 12 12 12 12 12 13 13 13 14
23 23 23 22 22 21 21 21 20 19 19 18 18 17 17 17 17 17 17 16 15 14 14 13 13 13 12 12 12 12 13 13 13 12 12 12 12 12 12 12 13 13
24 24 24 23 23 23 22 22 21 20 20 19 18 18 18 18 18 17 17 17 16 15 14 14 14 13 13 12 12 13 13 13 13 12 12 12 12 12 12 12 12 13
25 25 25 24 24 23 23 23 22 21 20 20 19 19 19 19 18 18 18 17 17 16 15 14 14 13 13 13 13 13 13 13 12 12 12 12 11 11 11 12 12 13
27 26 26 25 24 24 23 23 22 22 21 20 20 20 20 19 19 19 18 18 17 16 15 15 14 14 13 13 13 13 13 13 12 12 11 11 11 11 11 11 12 12
26 26 25 25 24 24 24 23 23 22 22 21 21 21 20 20 19 19 19 18 17 17 16 15 15 14 14 13 13 13 13 13 12 12 11 11 11 11 11 11 12 12
26 26 27 26 26 26 25 24 23 23 22 22 21 21 20 20 19 19 19 19 18 18 17 16 15 15 14 14 14 14 14 13 13 12 11 11 11 11 11 11 11 12
26 26 26 27 27 27 26 25 24 24 23 22 22 21 21 21 20 20 20 19 19 18 18 17 16 15 15 15 14 14 14 14 13 12 12 11 11 12 11 11 12 12
25 25 25 25 26 26 26 26 26 25 23 22 21 21 21 21 21 21 20 20 20 19 18 18 17 16 16 16 15 15 14 14 13 12 12 12 12 12 12 12 12 12
Wind_Direction
214 215 218 219 220 221 222 226 232 234 234 232 229 230 234 242 248 253 262 268 275 285 294 304 311 314 317 319 321 323 326 328 330 332 333 333 333 332 332 332 332 331
213 213 215 217 218 220 223 228 231 231 229 229 229 231 236 242 247 251 258 265 274 286 296 305 310 313 316 319 323 325 327 329 331 333 333 333 332 332 333 334 334 333
212 211 213 215 217 220 225 229 229 227 226 227 230 233 237 239 243 248 255 263 274 286 295 303 308 314 318 321 324 326 327 329 331 333 332 332 332 332 333 334 334 334
211 210 212 216 217 221 224 224 225 225 226 229 231 233 233 235 239 245 254 263 275 285 292 300 308 315 320 322 324 326 327 329 331 332 331 332 333 333 334 334 334 334
211 211 213 217 218 220 221 221 223 225 227 230 230 229 229 232 238 245 255 266 275 282 289 299 309 315 319 322 323 324 325 328 331 331 331 332 333 334 334 334 333 333
213 213 214 216 216 218 220 221 224 226 228 229 227 227 228 233 240 248 257 267 272 279 288 299 307 313 317 319 320 322 324 327 330 331 332 333 333 333 333 332 332 333
214 215 215 215 216 219 220 222 225 227 228 228 226 227 230 236 243 250 258 265 271 279 288 297 304 310 314 316 318 321 325 328 329 330 332 332 332 332 332 331 332 334
215 215 215 216 217 220 221 222 225 227 228 227 226 229 233 239 246 252 257 264 271 279 286 294 302 307 310 313 317 322 325 326 327 329 330 331 331 331 331 332 333 334
215 214 215 217 219 220 221 223 226 228 228 228 229 232 236 242 248 253 258 264 271 278 284 292 299 304 307 311 316 320 323 324 326 327 328 329 329 330 331 332 333 334
214 215 217 219 220 221 222 224 228 229 229 230 231 235 240 245 249 254 260 265 270 275 282 289 296 301 305 309 314 317 319 322 323 325 327 328 329 329 330 332 333 334
215 217 219 219 221 222 224 226 229 229 231 232 234 238 243 248 252 256 260 264 268 273 279 286 293 299 302 306 310 314 317 319 321 323 325 327 328 329 330 332 334 335
217 219 220 221 222 224 226 228 229 230 232 234 236 241 245 250 254 258 260 262 266 270 277 284 290 295 299 302 307 312 314 317 319 321 323 325 326 329 330 332 333 335
219 221 222 223 225 227 229 230 230 231 232 235 239 243 247 251 254 257 259 261 264 269 275 281 287 292 296 299 304 308 312 315 317 319 321 323 325 328 330 331 333 336
221 223 224 225 227 229 231 231 231 232 233 237 242 245 247 251 253 255 258 260 264 269 273 279 284 289 293 297 301 305 309 312 315 317 319 321 324 327 328 330 333 336
223 225 226 227 229 231 232 232 232 233 234 239 244 246 248 250 252 254 257 259 263 267 272 277 282 287 291 295 299 303 306 309 312 314 316 319 322 325 326 329 332 336
225 226 227 228 230 232 233 234 233 234 236 240 244 247 249 250 251 254 256 259 262 265 270 275 280 285 288 292 296 300 304 306 309 312 314 317 320 322 325 328 331 334
226 227 228 229 232 234 234 234 234 234 237 242 244 247 249 250 252 253 255 258 260 264 269 273 277 282 285 288 293 297 300 304 306 308 311 314 318 320 323 326 329 333
228 227 228 230 232 233 234 234 234 236 239 242 245 247 248 250 252 253 254 256 259 263 267 270 275 279 281 285 290 293 296 301 303 305 308 311 315 318 321 324 327 331
229 228 228 230 231 233 233 234 234 236 240 243 245 247 249 250 252 253 254 255 257 261 265 268 272 275 277 282 287 290 293 297 301 303 306 308 312 315 318 321 325 329
230 230 230 230 231 232 233 233 235 237 241 244 247 248 249 250 252 253 253 253 256 260 262 266 270 272 274 279 284 287 290 294 298 302 303 305 309 312 315 319 324 327
232 231 231 231 231 231 232 233 236 239 242 245 248 248 248 250 251 252 252 252 254 258 260 264 268 269 271 276 281 284 287 291 296 299 300 303 306 308 311 316 321 325
232 232 231 230 229 230 231 234 237 240 243 246 248 248 249 250 251 251 251 251 253 256 258 261 265 266 269 274 278 281 284 288 292 295 297 300 303 303 307 312 318 322
233 232 232 232 230 230 232 235 239 242 245 247 248 248 248 249 250 251 251 250 251 253 255 258 262 264 267 271 274 277 281 285 288 290 294 297 299 300 303 308 314 319
238 237 236 235 234 234 235 238 242 244 246 247 247 246 246 248 251 252 251 249 250 251 253 255 259 262 264 268 271 274 278 281 283 286 290 294 296 296 299 304 310 316
240 241 240 237 237 237 238 242 244 245 246 247 246 246 247 250 252 251 249 248 248 249 251 253 257 260 262 265 269 272 275 278 280 283 286 289 292 293 295 300 306 312
241 245 244 239 238 239 241 245 246 246 246 245 244 246 249 251 252 250 247 246 245 247 249 252 256 259 261 264 266 268 271 274 277 279 282 285 289 291 292 296 302 308